Atmospheric History
02/08/2018 19:44  to  2/9/2018 19:44
Change End Date:
To complete the export process:
1) Select all of the data below
2) Copy the data to the clipboard
3) Open a word processor such as Notepad
4) Paste the data into the word processor
5) Save the file

Date/Time (MDT), AirTemp, RH, Dewpoint ,AvgWindSpeed, GustWindSpeed, WindDirection, PrecipType, PrecipIntensity, PrecipAccumulation, PrecipRate
02/09/2018 19:35, 2, 73, -5 ,2, 3, SW, Yes, , ,  
02/09/2018 19:35, 2, 73, -5 ,2, 3, SW, Yes, , ,  
02/09/2018 19:25, 2, 73, -5 ,2, 2, S, Yes, , ,  
02/09/2018 19:20, 1, 73, -5 ,2, 2, S, Yes, , ,  
02/09/2018 19:15, 1, 73, -5 ,2, 3, SE, Yes, , ,  
02/09/2018 19:06, 1, 72, -6 ,2, 4, SE, Yes, , ,  
02/09/2018 19:05, 1, 72, -6 ,3, 4, SE, Yes, , ,  
02/09/2018 18:55, 1, 72, -6 ,4, 4, E, Yes, , ,  
02/09/2018 18:50, 1, 72, -6 ,3, 4, SE, Yes, , ,  
02/09/2018 18:45, 1, 72, -6 ,3, 4, SE, Yes, , ,  
02/09/2018 18:35, 1, 72, -6 ,4, 6, SE, Yes, , ,  
02/09/2018 18:35, 1, 72, -6 ,4, 6, SE, Yes, , ,  
02/09/2018 18:25, 1, 71, -6 ,4, 6, SE, Yes, , ,  
02/09/2018 18:20, 1, 71, -6 ,4, 6, SE, Yes, , ,  
02/09/2018 18:15, 1, 71, -6 ,6, 6, SE, Yes, , ,  
02/09/2018 18:05, 1, 71, -7 ,4, 5, SE, Yes, , ,  
02/09/2018 18:04, 0, 71, -7 ,4, 5, SE, Yes, , ,  
02/09/2018 17:55, 0, 70, -7 ,4, 4, SE, None, None, ,  
02/09/2018 17:50, 0, 70, -7 ,3, 5, SE, Yes, , ,  
02/09/2018 17:45, 0, 70, -7 ,4, 5, SE, None, None, ,  
02/09/2018 17:35, 0, 69, -7 ,2, 3, SE, Yes, , ,  
02/09/2018 17:35, 0, 69, -7 ,2, 3, SE, Yes, , ,  
02/09/2018 17:25, 0, 69, -7 ,2, 3, SE, None, None, ,  
02/09/2018 17:20, 0, 68, -8 ,2, 3, SE, Yes, , ,  
02/09/2018 17:14, 0, 68, -8 ,2, 4, E, Yes, , ,  
02/09/2018 17:05, 0, 68, -8 ,3, 4, E, Yes, , ,  
02/09/2018 17:04, 1, 68, -8 ,3, 4, E, Yes, , ,  
02/09/2018 16:54, 1, 67, -8 ,3, 4, E, None, None, ,  
02/09/2018 16:50, 1, 66, -8 ,2, 4, E, None, None, ,  
02/09/2018 16:44, 1, 66, -8 ,2, 3, E, None, None, ,  
02/09/2018 16:35, 1, 65, -8 ,2, 3, SE, Yes, , ,  
02/09/2018 16:34, 1, 65, -8 ,2, 3, SE, Yes, , ,  
02/09/2018 16:24, 2, 64, -7 ,2, 4, E, Yes, , ,  
02/09/2018 16:20, 2, 64, -7 ,2, 2, SE, Yes, , ,  
02/09/2018 16:14, 2, 64, -7 ,1, 2, E, Yes, , ,  
02/09/2018 16:05, 2, 64, -7 ,2, 4, E, Yes, , ,  
02/09/2018 16:04, 2, 64, -7 ,2, 4, E, Yes, , ,  
02/09/2018 15:54, 2, 64, -7 ,3, 6, E, Yes, , ,  
02/09/2018 15:50, 2, 64, -8 ,4, 6, E, Yes, , ,  
02/09/2018 15:44, 2, 64, -7 ,4, 6, E, Yes, , ,  
02/09/2018 15:35, 2, 63, -8 ,4, 6, E, Yes, , ,  
02/09/2018 15:34, 2, 63, -8 ,4, 6, E, Yes, , ,  
02/09/2018 15:24, 2, 60, -8 ,3, 4, E, Yes, , ,  
02/09/2018 15:20, 3, 59, -8 ,1, 4, SE, None, None, ,  
02/09/2018 15:14, 4, 57, -8 ,3, 4, E, Yes, , ,  
02/09/2018 15:05, 4, 56, -8 ,1, 4, E, Yes, , ,  
02/09/2018 15:04, 4, 55, -8 ,1, 4, E, Yes, , ,  
02/09/2018 14:54, 5, 54, -7 ,2, 4, NE, Yes, , ,  
02/09/2018 14:50, 6, 54, -7 ,2, 4, E, Yes, , ,  
02/09/2018 14:44, 6, 54, -7 ,3, 4, NE, Yes, , ,  
02/09/2018 14:35, 6, 54, -7 ,3, 6, NE, Yes, , ,  
02/09/2018 14:34, 6, 54, -7 ,3, 6, NE, Yes, , ,  
02/09/2018 14:24, 5, 54, -8 ,4, 6, NE, Yes, , ,  
02/09/2018 14:20, 5, 54, -8 ,4, 5, NE, Yes, , ,  
02/09/2018 14:13, 5, 53, -8 ,1, 3, E, Yes, , ,  
02/09/2018 14:05, 5, 54, -8 ,3, 4, NE, Yes, , ,  
02/09/2018 14:03, 5, 53, -8 ,3, 4, NE, Yes, , ,  
02/09/2018 13:53, 7, 53, -7 ,2, 4, NE, Yes, , ,  
02/09/2018 13:50, 6, 53, -7 ,1, 4, E, Yes, , ,  
02/09/2018 13:43, 6, 54, -7 ,2, 4, NE, Yes, , ,  
02/09/2018 13:35, 6, 54, -7 ,3, 4, NE, Yes, , ,  
02/09/2018 13:33, 6, 54, -7 ,2, 4, NE, Yes, , ,  
02/09/2018 13:23, 6, 54, -7 ,2, 4, NE, Yes, , ,  
02/09/2018 13:20, 6, 54, -7 ,4, 4, NE, Yes, , ,  
02/09/2018 13:13, 6, 54, -7 ,3, 4, NE, Yes, , ,  
02/09/2018 13:05, 6, 55, -6 ,2, 3, NE, Yes, , ,  
02/09/2018 13:03, 6, 55, -6 ,1, 2, NE, Yes, , ,  
02/09/2018 12:53, 6, 56, -6 ,2, 2, NE, Yes, , ,  
02/09/2018 12:50, 7, 57, -5 ,0, 2, NE, Yes, , ,  
02/09/2018 12:43, 7, 59, -4 ,0, 2, E, Yes, , ,  
02/09/2018 12:35, 6, 62, -5 ,2, 3, NE, Yes, , ,  
02/09/2018 12:33, 5, 62, -5 ,2, 3, NE, Yes, , ,  
02/09/2018 12:23, 4, 65, -5 ,2, 3, NE, Yes, , ,  
02/09/2018 12:20, 3, 65, -5 ,1, 4, N, Yes, , ,  
02/09/2018 12:13, 4, 66, -5 ,2, 4, NE, Yes, , ,  
02/09/2018 12:05, 4, 68, -4 ,2, 5, NE, Yes, , ,  
02/09/2018 12:03, 4, 69, -4 ,2, 5, NE, Yes, , ,  
02/09/2018 11:53, 2, 70, -5 ,4, 6, NE, Yes, , ,  
02/09/2018 11:50, 2, 71, -5 ,4, 6, NE, Yes, , ,  
02/09/2018 11:43, 2, 72, -5 ,3, 5, NE, Yes, , ,  
02/09/2018 11:35, 2, 73, -5 ,4, 5, NE, Yes, , ,  
02/09/2018 11:33, 2, 73, -5 ,4, 4, NE, Yes, , ,  
02/09/2018 11:23, 1, 74, -5 ,3, 4, NE, Yes, , ,  
02/09/2018 11:20, 1, 74, -5 ,2, 4, N, Yes, , ,  
02/09/2018 11:13, 0, 74, -6 ,3, 4, N, Yes, , ,  
02/09/2018 11:05, 0, 74, -7 ,4, 4, N, Yes, , ,  
02/09/2018 11:02, 0, 74, -7 ,4, 4, N, Yes, , ,  
02/09/2018 10:52, 0, 74, -6 ,4, 4, N, Yes, , ,  
02/09/2018 10:50, 0, 74, -6 ,3, 4, N, Yes, , ,  
02/09/2018 10:42, 0, 75, -6 ,4, 4, N, Yes, , ,  
02/09/2018 10:35, 1, 75, -5 ,4, 4, N, Yes, , ,  
02/09/2018 10:32, 1, 75, -5 ,3, 4, N, Yes, , ,  
02/09/2018 10:22, 2, 76, -4 ,1, 3, N, Yes, , ,  
02/09/2018 10:20, 1, 76, -5 ,2, 3, N, Yes, , ,  
02/09/2018 10:12, 1, 76, -5 ,1, 3, NE, Yes, , ,  
02/09/2018 10:05, 1, 76, -5 ,2, 4, NE, Yes, , ,  
02/09/2018 10:02, 1, 76, -5 ,2, 4, NE, Yes, , ,  
02/09/2018 09:52, 1, 76, -5 ,2, 3, N, Yes, , ,  
02/09/2018 09:50, 1, 76, -5 ,0, 2, NE, Yes, , ,  
02/09/2018 09:42, 0, 76, -5 ,1, 2, N, Yes, , ,  
02/09/2018 09:35, 0, 76, -6 ,1, 2, N, Yes, , ,  
02/09/2018 09:32, 0, 76, -6 ,1, 2, NE, Yes, , ,  
02/09/2018 09:22, 0, 76, -6 ,2, 3, NW, Yes, , ,  
02/09/2018 09:20, 0, 76, -6 ,1, 3, NW, Yes, , ,  
02/09/2018 09:12, -1, 76, -6 ,2, 4, NW, Yes, , ,  
02/09/2018 09:05, -1, 76, -7 ,2, 3, N, Yes, , ,  
02/09/2018 09:02, -1, 76, -7 ,1, 4, NE, Yes, , ,  
02/09/2018 08:52, -2, 76, -7 ,2, 3, NE, Yes, , ,  
02/09/2018 08:50, -2, 76, -8 ,2, 2, N, Yes, , ,  
02/09/2018 08:42, -2, 76, -8 ,2, 3, N, Yes, , ,  
02/09/2018 08:35, -2, 76, -8 ,2, 4, N, Yes, , ,  
02/09/2018 08:32, -2, 76, -8 ,2, 4, N, Yes, , ,  
02/09/2018 08:22, -2, 76, -8 ,4, 5, N, Yes, , ,  
02/09/2018 08:20, -2, 76, -8 ,3, 4, N, Yes, , ,  
02/09/2018 08:12, -2, 76, -8 ,2, 2, NE, Yes, , ,  
02/09/2018 08:05, -3, 76, -8 ,1, 2, N, Yes, , ,  
02/09/2018 08:01, -3, 76, -8 ,0, 2, N, Yes, , ,  
02/09/2018 07:51, -3, 76, -9 ,2, 3, NE, Yes, , ,  
02/09/2018 07:49, -3, 76, -9 ,2, 3, NE, Yes, , ,  
02/09/2018 07:41, -3, 76, -9 ,2, 2, N, Yes, , ,  
02/09/2018 07:35, -3, 76, -9 ,2, 3, NE, Yes, , ,  
02/09/2018 07:31, -3, 76, -9 ,1, 3, N, Yes, , ,  
02/09/2018 07:21, -3, 76, -9 ,0, 1, N, Yes, , ,  
02/09/2018 07:19, -3, 76, -9 ,0, 1, N, Yes, , ,  
02/09/2018 07:11, -3, 76, -9 ,0, 2, N, Yes, , ,  
02/09/2018 07:04, -3, 77, -9 ,1, 2, N, Yes, , ,  
02/09/2018 07:01, -3, 77, -9 ,1, 3, N, Yes, , ,  
02/09/2018 06:51, -3, 77, -9 ,2, 4, N, Yes, , ,  
02/09/2018 06:50, -3, 77, -9 ,2, 4, N, Yes, , ,  
02/09/2018 06:41, -3, 77, -9 ,4, 7, N, Yes, , ,  
02/09/2018 06:35, -3, 77, -9 ,6, 7, N, Yes, , ,  
02/09/2018 06:31, -3, 77, -9 ,6, 9, N, Yes, , ,  
02/09/2018 06:21, -3, 77, -8 ,7, 9, N, Yes, , ,  
02/09/2018 06:20, -3, 77, -8 ,7, 9, N, Yes, , ,  
02/09/2018 06:11, -3, 77, -8 ,7, 9, N, Yes, , ,  
02/09/2018 06:05, -3, 77, -8 ,8, 9, NE, Yes, , ,  
02/09/2018 06:01, -2, 77, -8 ,7, 9, N, Yes, , ,  
02/09/2018 05:51, -2, 77, -7 ,7, 9, NE, Yes, , ,  
02/09/2018 05:50, -2, 77, -7 ,7, 9, NE, Yes, , ,  
02/09/2018 05:41, -1, 77, -6 ,6, 6, N, Yes, , ,  
02/09/2018 05:35, -1, 77, -6 ,1, 3, NE, Yes, , ,  
02/09/2018 05:31, -1, 77, -6 ,2, 3, SE, Yes, , ,  
02/09/2018 05:21, -1, 77, -7 ,1, 4, SW, Yes, , ,  
02/09/2018 05:19, -1, 77, -7 ,2, 4, SW, Yes, , ,  
02/09/2018 05:11, -1, 77, -7 ,1, 6, N, Yes, , ,  
02/09/2018 05:05, -1, 77, -7 ,4, 9, SW, Yes, , ,  
02/09/2018 05:00, -1, 77, -7 ,6, 9, N, None, None, ,  
02/09/2018 04:50, -1, 77, -7 ,6, 9, NW, None, None, ,  
02/09/2018 04:50, -1, 77, -7 ,6, 9, NW, None, None, ,  
02/09/2018 04:40, -1, 77, -6 ,6, 7, NW, Yes, , ,  
02/09/2018 04:35, -1, 77, -6 ,6, 9, N, Yes, , ,  
02/09/2018 04:30, -1, 77, -6 ,7, 9, N, Yes, , ,  
02/09/2018 04:20, 0, 78, -5 ,6, 12, NW, Yes, , ,  
02/09/2018 04:20, 0, 77, -5 ,6, 12, NW, Yes, , ,  
02/09/2018 04:10, 1, 78, -5 ,6, 11, N, Yes, , ,  
02/09/2018 04:05, 1, 78, -4 ,6, 9, NW, Yes, , ,  
02/09/2018 04:00, 1, 78, -4 ,6, 7, NW, Yes, , ,  
02/09/2018 03:50, 1, 78, -4 ,4, 6, NW, None, None, ,  
02/09/2018 03:50, 1, 78, -4 ,4, 6, NW, None, None, ,  
02/09/2018 03:40, 1, 78, -5 ,4, 4, NW, Yes, , ,  
02/09/2018 03:35, 0, 78, -5 ,2, 4, N, None, None, ,  
02/09/2018 03:30, 0, 78, -5 ,3, 4, N, None, None, ,  
02/09/2018 03:20, -1, 78, -6 ,5, 6, NE, None, None, ,  
02/09/2018 03:20, -1, 78, -6 ,5, 6, NE, None, None, ,  
02/09/2018 03:10, 0, 78, -5 ,4, 6, N, None, None, ,  
02/09/2018 03:05, 0, 78, -6 ,4, 5, NE, None, None, ,  
02/09/2018 03:00, 0, 78, -5 ,3, 4, NE, None, None, ,  
02/09/2018 02:50, 0, 78, -5 ,4, 6, NE, None, None, ,  
02/09/2018 02:50, 0, 78, -5 ,4, 6, NE, None, None, ,  
02/09/2018 02:40, 1, 78, -5 ,5, 6, NE, Yes, , ,  
02/09/2018 02:35, 1, 78, -4 ,4, 6, NE, Yes, , ,  
02/09/2018 02:30, 1, 78, -4 ,5, 6, NE, Yes, , ,  
02/09/2018 02:20, 2, 78, -3 ,5, 6, E, Yes, , ,  
02/09/2018 02:20, 2, 78, -3 ,5, 6, E, Yes, , ,  
02/09/2018 02:09, 2, 78, -3 ,6, 7, E, Yes, , ,  
02/09/2018 02:05, 2, 78, -3 ,4, 6, NE, Yes, , ,  
02/09/2018 01:59, 3, 78, -2 ,4, 5, N, Yes, , ,  
02/09/2018 01:50, 3, 78, -2 ,3, 6, N, Yes, , ,  
02/09/2018 01:49, 3, 78, -2 ,4, 6, NE, Yes, , ,  
02/09/2018 01:39, 3, 78, -2 ,4, 4, NE, None, None, ,  
02/09/2018 01:35, 3, 78, -2 ,2, 4, N, Yes, , ,  
02/09/2018 01:29, 3, 78, -2 ,2, 4, NW, Yes, , ,  
02/09/2018 01:20, 3, 78, -2 ,2, 4, NW, Yes, , ,  
02/09/2018 01:19, 3, 78, -2 ,3, 4, NW, Yes, , ,  
02/09/2018 01:09, 3, 78, -2 ,3, 4, SE, Yes, , ,  
02/09/2018 01:05, 3, 78, -2 ,2, 2, E, Yes, , ,  
02/09/2018 00:59, 3, 78, -2 ,1, 3, W, Yes, , ,  
02/09/2018 00:50, 3, 78, -2 ,1, 4, N, Yes, , ,  
02/09/2018 00:49, 3, 78, -2 ,2, 4, N, Yes, , ,  
02/09/2018 00:39, 2, 78, -3 ,0, 2, NW, Yes, , ,  
02/09/2018 00:35, 2, 78, -3 ,1, 2, NW, Yes, , ,  
02/09/2018 00:29, 2, 78, -3 ,0, 1, NE, Yes, , ,  
02/09/2018 00:20, 2, 78, -3 ,0, 3, N, Yes, , ,  
02/09/2018 00:19, 2, 78, -3 ,0, 3, NW, Yes, , ,  
02/09/2018 00:09, 2, 78, -3 ,1, 4, N, Yes, , ,  
02/09/2018 00:05, 2, 78, -3 ,1, 2, N, Yes, , ,  
02/08/2018 23:59, 2, 78, -3 ,1, 2, N, Yes, , ,  
02/08/2018 23:50, 3, 78, -3 ,2, 4, W, Yes, , ,  
02/08/2018 23:49, 2, 78, -3 ,2, 5, NW, Yes, , ,  
02/08/2018 23:39, 2, 78, -3 ,3, 5, NW, None, None, ,  
02/08/2018 23:35, 2, 78, -3 ,0, 4, NW, Yes, , ,  
02/08/2018 23:29, 2, 78, -3 ,3, 5, NW, Yes, , ,  
02/08/2018 23:20, 2, 78, -3 ,2, 4, NW, Yes, , ,  
02/08/2018 23:19, 2, 78, -3 ,2, 4, NW, Yes, , ,  
02/08/2018 23:08, 2, 78, -3 ,3, 6, NW, Yes, , ,  
02/08/2018 23:05, 2, 78, -3 ,3, 6, N, Yes, , ,  
02/08/2018 22:58, 2, 78, -3 ,4, 7, N, Yes, , ,  
02/08/2018 22:50, 2, 78, -3 ,6, 7, N, Yes, , ,  
02/08/2018 22:48, 3, 78, -2 ,4, 7, N, Yes, , ,  
02/08/2018 22:38, 2, 78, -3 ,3, 7, NW, Yes, , ,  
02/08/2018 22:35, 2, 78, -3 ,2, 7, N, Yes, , ,  
02/08/2018 22:28, 3, 78, -2 ,4, 7, NW, Yes, , ,  
02/08/2018 22:20, 3, 78, -2 ,6, 7, N, None, None, ,  
02/08/2018 22:18, 3, 78, -2 ,6, 7, NW, Yes, , ,  
02/08/2018 22:08, 3, 78, -2 ,5, 6, NW, Yes, , ,  
02/08/2018 22:05, 3, 78, -2 ,2, 8, N, None, None, ,  
02/08/2018 21:58, 3, 78, -2 ,5, 11, N, None, None, ,  
02/08/2018 21:50, 3, 78, -2 ,9, 13, N, None, None, ,  
02/08/2018 21:48, 3, 78, -2 ,10, 13, N, None, None, ,  
02/08/2018 21:38, 3, 78, -2 ,6, 10, NW, Yes, , ,  
02/08/2018 21:35, 4, 78, -1 ,7, 10, NW, None, None, ,  
02/08/2018 21:28, 4, 78, -1 ,6, 9, N, Yes, , ,  
02/08/2018 21:20, 3, 78, -2 ,6, 9, N, None, None, ,  
02/08/2018 21:18, 3, 78, -2 ,6, 9, N, None, None, ,  
02/08/2018 21:08, 4, 78, -1 ,6, 10, N, Yes, , ,  
02/08/2018 21:05, 4, 78, -1 ,6, 8, N, Yes, , ,  
02/08/2018 20:58, 4, 78, -1 ,6, 10, NW, None, None, ,  
02/08/2018 20:50, 4, 78, -1 ,6, 10, NW, Yes, , ,  
02/08/2018 20:48, 4, 78, -1 ,5, 9, NW, Yes, , ,  
02/08/2018 20:38, 4, 78, -1 ,7, 10, N, Yes, , ,  
02/08/2018 20:35, 4, 78, -1 ,5, 9, NW, Yes, , ,  
02/08/2018 20:28, 4, 78, -1 ,6, 10, N, Yes, , ,  
02/08/2018 20:20, 4, 78, -1 ,6, 12, NW, Yes, , ,  
02/08/2018 20:18, 5, 78, -1 ,7, 12, NW, Yes, , ,  
02/08/2018 20:07, 5, 78, -1 ,8, 11, NW, Yes, , ,  
02/08/2018 20:05, 5, 78, -1 ,5, 11, W, Yes, , ,  
02/08/2018 19:57, 5, 78, 0 ,6, 11, NW, Yes, , ,  
02/08/2018 19:50, 5, 78, 0 ,6, 9, NW, Yes, , ,  
02/08/2018 19:47, 5, 78, 0 ,4, 9, W, Yes, , ,  
Change End Date:

Copyright © 1998-2015 Vaisala, Inc.
All Rights Reserved
Send comments about the data to:
SCAN Web ® is a registered trademark of Vaisala, Inc.
SCAN Web Version 6.0